Tracking 28790 objects as of 18-Apr-2024
HD Live streaming from Space Station
objects crossing your sky now

CZ-3A DEB

Track CZ-3A DEB now!
10-day predictions


NORAD ID: 35549
Int'l Code: 2007-003H
Perigee: 343.0 km
Apogee: 16,874.0 km
Inclination: 24.0 °
Period: 304.1 minutes
Semi major axis: 14979 km
RCS: 0.2518 m2 (medium)
Launch date: February 2, 2007
Source: People's Republic of China (PRC)
Launch site: Xichang Space Center, China (XSC)

Note: This is SATELLITE DEBRIS
Your satellite tracking list
Your tracking list is empty




NASA's NSSDC Master Catalog

Two Line Element Set (TLE):
1 35549U 07003H   24109.44619420  .00032873  00000-0  11511-1 0  9995
2 35549  23.9904 157.6146 5517871 119.4490 306.2767  4.73540434132143
Source of the keplerian elements: AFSPC